Content
SEND FEEDBACK

Daily
Averages
Monthly
Summary
United States of America

JENNINGS, LOUISIANA


Home > North America > United States > Louisiana
Elevation: 25 feet     Latitude: 30 14N     Longitude: 092 40W

WEATHER
 
SELECT A DAY
Number of Records: 126,182;   Date Range: 1/3/95 - 10/19/14
 
SHARE

PRINT THIS DATA

[ ← Previous Day ]
WEATHER ALMANAC - SEPTEMBER 2, 2014
[ Next Day → ]
[ °C ]   °F
Weather ElementAverageHighLow
Temperature81.3 °F91.4 °F (1:03 pm)77 °F (6:55 am)
Dewpoint74.8 °F77 °F (8:45 am)71.6 °F (11:50 am)
Humidity81.9 %94 % (2:15 am)55 % (1:03 pm)
Barometer30.00 in30.05 in (11:50 am)29.97 in (12:55 am)
Wind Speed5.7 mph15 mph (1:48 pm)
Wind Gust18.4 mph (1:48 pm)
Weather ElementAverage
Visibility9.8 mi
Wind DirectionESE (116.9 °)

Weather ElementTotal
Precipitation---
Cooling Degree Days19.2 (Base 65)
Growing Degree Days34.2 (Base 50)
Averaged from 36 records on September 2, 2014
WEATHER CONDITIONS BREAKOUT
WIND DIRECTION BREAKOUT
WEATHER BY HOUR - SEPTEMBER 2, 2014
[ °C ]   °F
Local TimeTemperatureDewpointHumidityBarometerVisibilityWind DirectionWind SpeedGust SpeedPrecipitationEventsConditions
12:35 AM79.2 °F76.1 °F90 %29.98 in10.0 miSSE (160°)5.8 mphClear
12:55 AM78.8 °F76.1 °F91 %29.97 in10.0 miSSE (150°)4.6 mphClear
1:15 AM78.3 °F75.9 °F92 %29.97 in10.0 miSSE (150°)5.8 mphClear
1:35 AM78.6 °F76.1 °F92 %29.97 in10.0 miSSE (160°)3.5 mphClear
1:55 AM77.9 °F75.4 °F92 %29.97 in10.0 miCalmClear
2:15 AM77.9 °F75.9 °F94 %29.97 in10.0 miSE (140°)4.6 mphClear
2:35 AM78.3 °F76.1 °F93 %29.97 in10.0 miSouth (170°)3.5 mphClear
2:55 AM77.9 °F75.6 °F92 %29.98 in10.0 miSSE (150°)5.8 mphClear
3:15 AM77.7 °F75.6 °F93 %29.97 in10.0 miSE (140°)4.6 mphClear
3:35 AM77.9 °F76.1 °F94 %29.98 in10.0 miSE (130°)3.5 mphClear
3:55 AM78.1 °F76.1 °F94 %29.99 in10.0 miCalmScattered Clouds
4:15 AM78.1 °F76.1 °F94 %29.98 in10.0 miCalmScattered Clouds
6:00 AM78.8 °F75.2 °F89 %30.00 in7.0 miENE (70°)3.5 mphClear
6:55 AM77.0 °F75.2 °F94 %30.00 in7.0 miENE (70°)3.5 mphClear
8:45 AM82.4 °F77.0 °F84 %30.02 in10.0 miSSE (150°)11.5 mphClear
10:50 AM89.6 °F73.4 °F59 %30.04 in10.0 miSouth (170°)11.5 mphScattered Clouds
11:50 AM87.8 °F71.6 °F58 %30.05 in10.0 miSouth (180°)9.2 mphScattered Clouds
12:50 PM89.6 °F73.4 °F59 %30.04 in10.0 miSouth (170°)10.4 mphScattered Clouds
1:03 PM91.4 °F73.4 °F55 %30.04 in10.0 miSouth (180°)12.7 mph17.3 mphThunderstormThunderstorm
1:48 PM89.6 °F73.4 °F59 %30.01 in10.0 miSouth (170°)15.0 mph18.4 mphScattered Clouds
2:50 PM91.4 °F73.4 °F55 %30.00 in10.0 miSouth (170°)13.8 mphScattered Clouds
3:55 PM89.6 °F73.4 °F59 %29.98 in10.0 miSouth (190°)11.5 mphScattered Clouds
4:50 PM87.8 °F73.4 °F62 %29.98 in10.0 miSouth (190°)6.9 mphScattered Clouds
6:50 PM87.8 °F73.4 °F62 %30.01 in10.0 miSSW (210°)3.5 mphScattered Clouds
7:50 PM82.4 °F75.2 °F79 %30.01 in10.0 miSSE (150°)4.6 mphPartly Cloudy
8:50 PM80.6 °F75.2 °F84 %30.01 in10.0 miESE (110°)5.8 mphClear
9:15 PM79.2 °F74.3 °F85 %30.01 in10.0 miESE (110°)6.9 mphClear
9:35 PM78.6 °F74.1 °F86 %30.00 in10.0 miESE (120°)6.9 mphClear
9:50 PM80.6 °F75.2 °F84 %30.01 in10.0 miEast (100°)8.1 mphClear
9:55 PM78.1 °F74.3 °F88 %29.99 in10.0 miSE (130°)8.1 mphClear
10:15 PM78.4 °F75.2 °F90 %29.99 in10.0 miSE (140°)5.8 mphClear
10:35 PM78.1 °F74.7 °F89 %30.00 in10.0 miEast (80°)3.5 mphClear
10:55 PM77.9 °F74.7 °F90 %30.01 in10.0 miCalmClear
11:15 PM77.9 °F74.3 °F89 %30.00 in10.0 miCalmClear
11:35 PM77.4 °F74.3 °F90 %30.00 in10.0 miCalmClear
11:55 PM77.4 °F74.3 °F90 %29.99 in10.0 miCalmClear
Hourly data recorded from KCWF, located miles away from Jennings, Louisiana







STORIES FROM OUR PARTNERS